Waarnemingen

Advertentie
Mijn weer
Ahaus, Duitsland (10309): temperatuur & dauwpunt: 22.05.2018 07:00:00 - 28.05.2018 07:00:00 (CEST)Ahaus, Duitsland (10309): temperatuur 5cm & temperatuur -5cm: 22.05.2018 07:00:00 - 28.05.2018 07:00:00 (CEST)Ahaus, Duitsland (10309): temperatuur -20cm & temperatuur -100cm: 22.05.2018 07:00:00 - 28.05.2018 07:00:00 (CEST)Ahaus, Duitsland (10309): windsnelheid & windstoten: 22.05.2018 07:00:00 - 28.05.2018 07:00:00 (CEST)Ahaus, Duitsland (10309): windrichting: 22.05.2018 07:00:00 - 28.05.2018 07:00:00 (CEST)Ahaus, Duitsland (10309): luchtdruk: 22.05.2018 07:00:00 - 28.05.2018 07:00:00 (CEST)Ahaus, Duitsland (10309): zicht: 22.05.2018 07:00:00 - 28.05.2018 07:00:00 (CEST)Ahaus, Duitsland (10309): Zonneschijnduur: 22.05.2018 07:00:00 - 28.05.2018 07:00:00 (CEST)Ahaus, Duitsland (10309): neerslag: 22.05.2018 07:00:00 - 28.05.2018 07:00:00 (CEST)
Datum & Tijd tt [°C] td [°C] tt 5cm [°C] tt -5cm [°C] tt -20cm [°C] tt -100cm [°C] ff [km/u] ff [kn] fx [km/u] fx [kn] dd ppp [hPa] vv [km] sd [min] rr [mm]
28.05.2018 07:00:00 16,6 14,9 16,4 19,0 21,0 16,2 3 2 19 10 ONO 1018,0 4,0 41 0,0
28.05.2018 06:00:00 13,8 13,5 11,8 18,8 21,3 16,2 2 1 19 10 O 1018,0 2,6 0 0,0
28.05.2018 05:00:00 14,1 13,8 11,0 19,2 21,6 16,2 3 2 19 10 OZO 1017,6 3,2 0 0,0
28.05.2018 04:00:00 14,8 14,0 11,1 19,8 21,9 16,2 5 3 10 5 NO 1017,7 4,3 0 0,0
28.05.2018 03:00:00 15,4 14,2 14,0 20,2 22,2 16,1 4 2 19 10 O 1017,6 7 0 0,0
28.05.2018 02:00:00 15,8 14,1 13,2 20,5 22,5 16,1 3 2 14 8 OZO 1017,7 8 0 0,0
28.05.2018 01:00:00 16,5 14,1 14,4 21,0 22,8 16,1 4 2 8 5 O 1018,0 13 0 0,0
28.05.2018 00:00:00 16,7 13,9 13,2 21,8 23,2 16,1 5 3 9 5 N 1018,1 14 0 0,0
27.05.2018 23:00:00 18,8 14,2 16,2 22,7 23,5 16,1 5 3 13 7 O 1017,7 20 0 0,0
27.05.2018 22:00:00 18,8 13,6 15,2 23,9 23,8 16,1 6 3 19 10 ONO 1017,6 37 0 0,0
27.05.2018 21:00:00 20,8 14,5 18,9 25,3 24,0 16,1 4 2 19 10 OZO 1017,6 44 23 0,0
27.05.2018 20:00:00 22,6 12,5 25,1 26,1 24,1 16,1 8 4 16 9 O 1017,1 44 25 0,0
27.05.2018 19:00:00 22,5 13,2 22,9 26,4 24,3 16,1 13 7 19 10 ZZW 1017,1 37 0 0,0
27.05.2018 18:00:00 23,1 13,6 23,1 27,6 24,4 16,1 9 5 26 14 Z 1017,2 25 0 0,0
27.05.2018 17:00:00 24,9 13,4 25,5 29,6 24,2 16,0 16 9 29 16 ZZW 1017,3 26 0 0,0
27.05.2018 16:00:00 26,6 12,5 29,5 30,5 23,9 16,0 9 5 19 10 O 1017,1 34 0 0,0
27.05.2018 15:00:00 26,8 11,8 28,8 31,6 23,4 16,0 13 7 26 14 ZO 1017,7 28 21 0,0
27.05.2018 14:00:00 27,5 13,6 34,5 31,8 22,8 16,0 12 6 25 13 O 1018,0 20 60 0,0
27.05.2018 13:00:00 26,4 13,1 34,6 30,3 22,2 16,0 14 7 23 12 ONO 1018,5 28 60 0,0
27.05.2018 12:00:00 25,0 12,9 32,8 28,1 21,6 16,0 14 8 23 12 O 1019,0 23 43 0,0
27.05.2018 11:00:00 23,8 13,3 31,7 26,5 21,2 16,0 13 7 23 12 ONO 1019,3 22 60 0,0
27.05.2018 10:00:00 21,9 12,9 27,7 24,1 21,0 16,0 13 7 21 12 ONO 1019,6 23 60 0,0
27.05.2018 09:00:00 19,9 12,6 24,0 22,0 21,0 15,9 10 6 21 11 O 1019,9 22 60 0,0
27.05.2018 08:00:00 18,0 11,8 20,7 20,4 21,1 15,9 11 6 22 12 NO 1019,8 26 60 0,0
27.05.2018 07:00:00 16,9 11,4 16,8 19,6 21,4 15,9 12 6 20 11 NO 1019,7 30 50 0,0
27.05.2018 06:00:00 16,5 11,2 14,6 19,4 21,7 15,9 11 6 18 10 NO 1019,8 33 0 0,0
27.05.2018 05:00:00 16,4 11,1 11,9 19,9 22,0 15,9 5 3 13 7 ONO 1019,9 36 0 0,0
27.05.2018 04:00:00 17,9 11,0 15,4 20,4 22,3 15,9 9 5 16 9 NO 1020,1 40 0 0,0
27.05.2018 03:00:00 18,9 11,0 16,3 21,0 22,7 15,9 10 6 21 11 NO 1020,1 39 0 0,0
27.05.2018 02:00:00 19,4 10,7 16,8 21,6 23,1 15,9 10 5 22 12 ONO 1020,6 35 0 0,0
27.05.2018 01:00:00 19,9 10,4 16,9 22,3 23,5 15,9 10 5 16 9 ONO 1021,0 30 0 0,0
27.05.2018 00:00:00 20,9 11,2 16,7 23,2 23,9 15,9 8 4 14 8 NO 1020,7 30 0 0,0
26.05.2018 23:00:00 21,9 11,5 17,3 24,4 24,2 15,9 7 4 10 5 ONO 1020,6 21 0 0,0
26.05.2018 22:00:00 23,3 11,1 19,0 25,9 24,5 15,9 6 4 14 7 ONO 1020,4 32 0 0,0
26.05.2018 21:00:00 25,0 10,7 24,1 27,7 24,6 15,9 9 5 23 13 ONO 1019,9 36 57 0,0
26.05.2018 20:00:00 26,5 10,8 27,9 29,5 24,6 15,8 14 8 24 13 ONO 1019,8 32 57 0,0
26.05.2018 19:00:00 26,8 11,3 28,8 31,1 24,4 15,8 12 6 23 12 ONO 1019,7 35 55 0,0
26.05.2018 18:00:00 28,0 11,7 33,6 31,9 24,1 15,8 14 8 30 16 O 1019,7 23 45 0,0
26.05.2018 17:00:00 28,4 11,1 35,1 32,7 23,6 15,8 10 6 26 14 OZO 1020,0 25 60 0,0
26.05.2018 16:00:00 28,0 9,5 33,9 32,7 23,0 15,8 15 8 31 17 OZO 1020,2 25 60 0,0
26.05.2018 15:00:00 27,6 10,1 32,9 32,2 22,3 15,8 16 9 32 17 OZO 1020,4 25 60 0,0
26.05.2018 14:00:00 27,3 11,3 34,8 31,2 21,6 15,8 15 8 33 18 OZO 1020,5 22 58 0,0
26.05.2018 13:00:00 26,8 11,8 33,1 29,8 20,9 15,8 17 9 29 16 ZO 1020,6 17 60 0,0
26.05.2018 12:00:00 26,4 12,7 32,7 27,7 20,3 15,8 14 8 26 14 OZO 1020,7 28 60 0,0
26.05.2018 11:00:00 24,8 14,6 30,2 25,4 19,9 15,8 10 5 18 10 O 1020,6 24 60 0,0
26.05.2018 10:00:00 22,7 14,5 26,4 23,1 19,6 15,8 10 5 17 9 O 1020,6 15 60 0,0
26.05.2018 09:00:00 21,5 14,8 25,2 20,7 19,5 15,8 6 3 12 7 O 1020,7 13 60 0,0
26.05.2018 08:00:00 18,7 13,9 20,8 18,9 19,6 15,8 5 3 8 4 ONO 1020,4 14 53 0,0
26.05.2018 07:00:00 16,7 12,8 15,6 18,1 19,8 15,8 4 2 7 4 ONO 1020,3 16 14 0,0
26.05.2018 06:00:00 16,2 12,6 13,4 18,0 20,0 15,8 5 3 10 6 ONO 1019,8 17 0 0,0
26.05.2018 05:00:00 16,6 13,1 13,8 18,3 20,3 15,7 6 4 12 7 ONO 1019,6 14 0 0,0
26.05.2018 04:00:00 17,4 14,0 14,2 18,6 20,6 15,7 8 4 13 7 NO 1019,7 11 0 0,0
26.05.2018 03:00:00 17,0 14,1 12,7 19,1 20,8 15,7 4 2 7 4 ONO 1019,6 11 0 0,0
26.05.2018 02:00:00 17,8 14,3 15,1 19,6 21,1 15,7 5 3 13 7 ONO 1019,6 13 0 0,0
26.05.2018 01:00:00 17,9 14,6 13,9 20,1 21,4 15,7 5 3 7 4 ONO 1019,5 14 0 0,0
26.05.2018 00:00:00 18,3 14,5 14,4 20,8 21,7 15,7 4 2 11 6 NO 1019,3 16 0 0,0
25.05.2018 23:00:00 19,6 14,7 16,0 21,6 22,0 15,7 5 3 8 4 ONO 1019,0 18 0 0,0
25.05.2018 22:00:00 19,8 14,9 15,5 22,7 22,2 15,7 5 3 8 5 NO 1019,1 18 0 0,0
25.05.2018 21:00:00 21,8 15,0 20,2 23,9 22,3 15,7 4 2 15 8 ONO 1018,6 23 7 0,0
25.05.2018 20:00:00 23,1 14,7 24,8 24,9 22,3 15,7 6 3 14 8 O 1018,2 26 21 0,0
25.05.2018 19:00:00 23,2 14,8 24,8 25,3 22,3 15,7 7 4 14 7 O 1018,2 29 7 0,0
25.05.2018 18:00:00 22,7 15,0 23,5 25,8 22,3 15,7 11 6 19 10 ZZO 1018,7 34 0 0,0
25.05.2018 17:00:00 23,0 15,1 24,4 26,6 22,2 15,7 10 5 18 10 O 1018,5 24 0 0,0
25.05.2018 16:00:00 23,4 15,2 26,3 27,6 21,9 15,7 8 4 23 13 O 1018,5 30 0 0,0
25.05.2018 15:00:00 23,3 14,7 26,0 29,2 21,3 15,7 9 5 21 12 O 1018,3 7 23 0,0
25.05.2018 14:00:00 23,5 14,9 28,8 28,6 20,7 15,7 8 4 21 11 ZO 1018,4 9 27 0,0
25.05.2018 13:00:00 23,1 14,7 31,7 26,9 20,1 15,7 11 6 19 11 O 1018,9 4,4 20 0,0
25.05.2018 12:00:00 22,1 15,1 27,9 25,4 19,7 15,6 11 6 23 12 O 1018,9 6 44 0,0
25.05.2018 11:00:00 20,5 14,9 24,3 21,9 19,5 15,6 8 5 18 10 OZO 1018,9 9 2 0,0
25.05.2018 10:00:00 18,7 14,6 20,5 20,5 19,5 15,6 9 5 17 9 OZO 1018,7 13 3 0,0
25.05.2018 09:00:00 17,7 14,5 18,5 19,3 19,5 15,6 7 4 17 9 O 1018,6 11 0 0,0
25.05.2018 08:00:00 17,2 14,7 18,1 18,8 19,6 15,6 3 2 11 6 O 1018,5 9 0 0,0
25.05.2018 07:00:00 16,6 14,3 16,3 18,5 19,8 15,6 6 3 11 6 OZO 1018,1 8 0 0,0
25.05.2018 06:00:00 16,3 13,8 15,1 18,5 20,0 15,6 5 3 10 6 OZO 1017,9 11 0 0,0
25.05.2018 05:00:00 16,6 13,9 15,1 18,9 20,2 15,6 6 3 13 7 O 1017,8 11 0 0,0
25.05.2018 04:00:00 17,2 13,9 16,4 19,3 20,4 15,6 6 3 16 8 OZO 1018,0 14 0 0,0
25.05.2018 03:00:00 17,6 14,1 16,9 19,6 20,6 15,6 9 5 18 10 O 1018,1 12 0 0,0
25.05.2018 02:00:00 17,8 14,3 17,1 19,9 20,8 15,6 8 4 22 12 O 1018,2 11 0 0,0
25.05.2018 01:00:00 18,2 14,0 17,5 20,1 21,0 15,6 10 5 21 11 O 1018,5 15 0 0,0
25.05.2018 00:00:00 18,0 13,9 16,6 20,6 21,2 15,6 8 4 18 10 O 1018,5 14 0 0,0
24.05.2018 23:00:00 19,1 14,1 18,4 21,2 21,4 15,6 10 5 22 12 O 1018,7 16 0 0,0
24.05.2018 22:00:00 19,2 14,2 18,5 21,8 21,6 15,5 8 4 19 10 O 1018,4 14 0 0,0
24.05.2018 21:00:00 19,5 14,1 19,0 22,7 21,8 15,5 9 5 20 11 O 1018,2 11 0 0,0
24.05.2018 20:00:00 19,9 14,0 20,2 23,7 21,9 15,5 12 6 36 19 O 1018,0 11 7 0,0
24.05.2018 19:00:00 19,5 13,7 20,5 23,8 21,9 15,5 17 9 35 19 O 1018,2 13 0 0,0
24.05.2018 18:00:00 19,0 14,1 20,2 24,9 21,9 15,5 16 9 38 21 O 1018,4 9 0 0,0
24.05.2018 17:00:00 20,2 13,3 22,1 26,2 21,7 15,5 23 13 41 22 O 1018,7 14 0 0,0
24.05.2018 16:00:00 21,6 13,1 25,3 26,5 21,5 15,5 16 9 36 19 O 1019,1 6 0 0,0
24.05.2018 15:00:00 22,0 12,7 24,6 27,2 21,1 15,5 16 9 39 21 O 1019,2 6 11 0,0
24.05.2018 14:00:00 22,0 12,8 25,5 27,6 20,6 15,5 21 12 41 22 ONO 1019,5 12 22 0,0
24.05.2018 13:00:00 22,8 13,0 28,9 25,8 20,1 15,5 10 6 30 16 O 1019,8 24 17 0,0
24.05.2018 12:00:00 21,7 12,3 30,4 24,5 19,7 15,5 16 9 29 16 ONO 1020,2 15 21 0,0
24.05.2018 11:00:00 19,5 10,5 24,9 23,0 19,4 15,4 16 9 27 15 NO 1020,3 23 32 0,0
24.05.2018 10:00:00 17,9 10,0 21,8 20,7 19,3 15,4 14 8 23 13 NO 1020,8 29 10 0,0
24.05.2018 09:00:00 17,0 9,4 20,7 19,7 19,3 15,4 11 6 21 11 NO 1020,9 29 48 0,0
24.05.2018 08:00:00 16,0 8,9 18,0 18,0 19,4 15,4 8 5 17 9 NNO 1020,8 40 9 0,0
24.05.2018 07:00:00 15,0 8,5 15,2 17,3 19,6 15,4 7 4 16 8 NNO 1020,9 38 7 0,0
24.05.2018 06:00:00 14,3 8,0 11,9 17,2 19,9 15,4 8 4 16 8 NO 1020,9 42 0 0,0
24.05.2018 05:00:00 14,5 8,0 12,3 17,5 20,2 15,4 8 4 17 9 NNO 1021,1 42 0 0,0
24.05.2018 04:00:00 15,4 7,8 12,4 17,9 20,6 15,4 9 5 18 10 NO 1021,4 47 0 0,0
24.05.2018 03:00:00 16,0 7,6 13,2 18,3 20,9 15,4 10 5 19 10 NO 1021,6 50 0 0,0
24.05.2018 02:00:00 16,3 7,5 12,5 18,9 21,3 15,3 9 5 16 9 NO 1021,7 50 0 0,0
24.05.2018 01:00:00 16,9 7,1 12,6 19,7 21,7 15,3 9 5 15 8 NO 1021,7 45 0 0,0
24.05.2018 00:00:00 18,2 6,5 14,2 20,5 22,1 15,3 9 5 17 9 NO 1021,6 46 0 0,0
23.05.2018 23:00:00 19,2 6,5 15,4 21,7 22,5 15,3 10 5 18 10 NO 1021,4 54 0 0,0
23.05.2018 22:00:00 20,0 8,3 15,2 23,1 22,8 15,3 7 4 19 11 NO 1021,1 36 0 0,0
23.05.2018 21:00:00 22,3 8,0 21,0 24,8 22,9 15,3 12 7 28 15 NO 1020,6 48 36 0,0
23.05.2018 20:00:00 23,3 8,0 24,2 26,5 22,9 15,3 14 8 33 18 NO 1020,4 30 58 0,0
23.05.2018 19:00:00 23,8 7,2 27,2 27,7 22,8 15,3 18 10 39 21 ONO 1020,2 11 60 0,0
23.05.2018 18:00:00 24,1 6,6 28,2 28,4 22,5 15,3 19 10 35 19 O 1020,3 9 60 0,0
23.05.2018 17:00:00 23,3 9,0 27,2 29,0 22,1 15,3 13 7 28 15 O 1020,4 31 48 0,0
23.05.2018 16:00:00 23,7 10,2 28,9 29,5 21,6 15,2 14 8 37 20 O 1020,6 15 56 0,0
23.05.2018 15:00:00 24,2 11,4 31,0 28,9 21,0 15,2 16 8 31 17 O 1020,5 9 43 0,0
23.05.2018 14:00:00 23,2 10,2 28,1 28,5 20,4 15,2 12 6 30 16 O 1020,6 15 42 0,0
23.05.2018 13:00:00 23,1 10,2 32,6 26,5 19,8 15,2 14 7 24 13 ONO 1020,6 12 60 0,0
23.05.2018 12:00:00 21,1 10,6 28,9 23,7 19,5 15,2 11 6 19 10 NNO 1020,1 21 45 0,0
23.05.2018 11:00:00 18,9 11,6 23,2 20,8 19,3 15,2 10 5 16 8 NNO 1019,8 19 0 0,0
23.05.2018 10:00:00 17,5 11,5 20,9 19,4 19,4 15,2 11 6 16 9 NNO 1019,7 18 0 0,0
23.05.2018 09:00:00 16,1 11,9 17,2 18,2 19,5 15,2 8 5 14 7 NNO 1019,1 18 0 0,0
23.05.2018 08:00:00 15,6 12,2 15,6 18,0 19,7 15,1 8 5 16 8 NO 1018,5 18 0 0,0
23.05.2018 07:00:00 15,4 12,6 14,6 18,0 19,9 15,1 8 4 18 10 NO 1017,8 16 0 0,0
23.05.2018 06:00:00 15,4 12,8 14,4 18,4 20,2 15,1 9 5 19 11 NO 1017,4 15 0 0,1
23.05.2018 05:00:00 15,8 12,7 15,2 18,6 20,4 15,1 10 5 21 12 NO 1016,9 20 0 0,0
23.05.2018 04:00:00 16,3 12,5 15,5 18,9 20,7 15,1 11 6 21 11 NO 1016,7 24 0 0,0
23.05.2018 03:00:00 16,5 12,6 15,1 19,2 21,0 15,1 8 5 16 8 NO 1016,6 27 0 0,0
23.05.2018 02:00:00 16,9 12,4 15,6 19,7 21,3 15,1 2 1 17 9 NO 1016,7 29 0 0,0
23.05.2018 01:00:00 16,6 12,8 14,6 20,3 21,7 15,1 6 3 16 9 ONO 1016,4 30 0 0,1
23.05.2018 00:00:00 17,7 12,5 15,7 21,1 22,0 15,1 9 5 20 11 ONO 1015,9 11 0 0,0
22.05.2018 23:00:00 18,5 12,5 16,0 21,8 22,3 15,0 6 3 10 5 NNO 1015,3 37 0 0,0
22.05.2018 22:00:00 19,6 11,8 18,4 22,9 22,6 15,0 8 5 18 10 ZO 1014,7 56 0 0,0
22.05.2018 21:00:00 20,6 11,9 19,8 24,1 22,9 15,0 10 5 19 10 ZO 1014,1 50 0 0,0
22.05.2018 20:00:00 21,9 12,6 21,8 25,4 23,0 15,0 9 5 17 9 ZO 1013,3 44 0 0,0
22.05.2018 19:00:00 22,6 12,0 23,0 26,7 23,1 15,0 9 5 21 11 ZO 1013,2 39 0 0,0
22.05.2018 18:00:00 23,2 11,6 25,0 28,0 23,0 15,0 6 3 18 10 OZO 1012,8 37 0 0,0
22.05.2018 17:00:00 23,3 12,2 25,6 29,5 22,7 15,0 11 6 20 11 OZO 1012,6 19 0 0,0
22.05.2018 16:00:00 24,0 11,0 28,4 31,5 22,1 15,0 10 5 20 11 OZO 1012,7 15 59 0,0
22.05.2018 15:00:00 24,3 11,0 31,5 31,3 21,3 15,0 8 5 17 9 O 1012,6 19 60 0,0
22.05.2018 14:00:00 23,5 10,0 31,8 29,9 20,6 15,0 10 6 19 10 ONO 1012,8 16 60 0,0
22.05.2018 13:00:00 22,2 10,8 31,8 28,3 19,9 14,9 10 5 15 8 NO 1012,9 17 60 0,0
22.05.2018 12:00:00 20,9 10,4 29,3 25,7 19,4 14,9 9 5 15 8 ONO 1012,9 16 60 0,0
22.05.2018 11:00:00 20,1 11,2 24,8 22,9 19,1 14,9 5 3 13 7 O 1013,2 25 60 0,0
22.05.2018 10:00:00 18,4 12,1 21,5 20,7 19,0 14,9 5 3 11 6 OZO 1013,3 26 60 0,0
22.05.2018 09:00:00 16,5 10,9 17,7 18,6 19,0 14,9 5 3 12 6 O 1013,2 19 50 0,0
22.05.2018 08:00:00 14,0 11,3 13,2 17,2 19,3 14,9 6 3 10 5 N 1012,8 18 2 0,0
22.05.2018 07:00:00 14,2 11,6 12,9 17,4 19,6 14,9 5 3 22 12 NNW 1012,4 22 0 0,2

tt = temperatuur
td = dauwpunt
tt 5cm = temperatuur 5cm
tt -5cm = temperatuur -5cm
tt -20cm = temperatuur -20cm
tt -100cm = temperatuur -100cm
ff = windsnelheid
fx = windstoten
dd = windrichting
ppp = luchtdruk
vv = zicht
sd = Zonneschijnduur
rr = neerslag

Weerstations in de omgeving